Location: Doverdale
(52.2833°N, 2.2000°W)
Time: 01:21:55
(UTC+00:00)

CZ-4B R/B - Pass Details

Date: 29 October 2020
Orbit: 388 x 462 km, 97.6° (Epoch: 27 November)

Event Time Altitude Azimuth Distance (km) Brightness Sun altitude
Rises 18:38:42 0° 6° (N) 2,406 5.0 -17.9°
Reaches altitude 10° 18:40:53 10° 355° (N) 1,519 4.1 -18.2°
Maximum altitude 18:43:45 29° 293° (WNW) 797 3.3 -18.7°
Drops below altitude 10° 18:46:31 10° 231° (SW) 1,473 4.7 -19.1°
Sets 18:48:36 0° 220° (SW) 2,316 5.6 -19.4°
